DAL88 KFLL-KJAX

Flight info

Callsign DAL88
Flight time 0h 52m
Altitude 30000
Route FRSBE2 STYMY ORL/N0452F310 HAINY QUBEN2
Aircraft B739/M-SDE2E3FGHIRWXY/LB1

Departure

Time 2026-05-03 23:39
Airport Fort Lauderdale Hollywood International Airport (KFLL)

Arrival

Time 2026-05-04 00:31
Airport Jacksonville International Airport (KJAX)
Time Latitude Longitude Altitude Speed Heading
2026-05-03 21:57 26.07309 -80.14733 20 ft 0 kts 70°
2026-05-03 22:29 26.07307 -80.14736 19 ft 3 kts 69°
2026-05-03 22:29 26.07299 -80.14761 18 ft 4 kts 67°
2026-05-03 22:29 26.07289 -80.14785 22 ft 4 kts 60°
2026-05-03 22:29 26.07276 -80.14805 23 ft 3 kts 36°
2026-05-03 22:30 26.07263 -80.14812 21 ft 3 kts 329°
2026-05-03 22:30 26.07260 -80.14811 20 ft 1 kts 300°
2026-05-03 22:35 26.07261 -80.14812 20 ft 1 kts 300°
2026-05-03 22:35 26.07274 -80.14837 20 ft 6 kts 301°
2026-05-03 22:35 26.07277 -80.14875 19 ft 5 kts 240°
2026-05-03 22:35 26.07247 -80.14889 19 ft 5 kts 185°
2026-05-03 22:36 26.07214 -80.14882 22 ft 5 kts 159°
2026-05-03 22:36 26.07168 -80.14863 22 ft 8 kts 178°
2026-05-03 22:36 26.07136 -80.14893 22 ft 5 kts 270°
2026-05-03 22:36 26.07152 -80.14928 22 ft 5 kts 305°
2026-05-03 22:37 26.07170 -80.14964 21 ft 6 kts 284°
2026-05-03 22:37 26.07151 -80.15017 22 ft 8 kts 244°
2026-05-03 22:37 26.07162 -80.15074 23 ft 8 kts 308°
2026-05-03 22:37 26.07200 -80.15118 21 ft 5 kts 323°
2026-05-03 22:38 26.07227 -80.15129 19 ft 1 kts 355°
2026-05-03 22:38 26.07246 -80.15129 18 ft 5 kts 359°
2026-05-03 22:38 26.07309 -80.15128 18 ft 11 kts
2026-05-03 22:38 26.07390 -80.15126 15 ft 12 kts
2026-05-03 22:39 26.07468 -80.15132 15 ft 10 kts 327°
2026-05-03 22:39 26.07475 -80.15140 13 ft 1 kts 312°
2026-05-03 22:39 26.07483 -80.15151 13 ft 2 kts 309°
2026-05-03 22:39 26.07492 -80.15173 12 ft 4 kts 281°
2026-05-03 22:40 26.07489 -80.15248 11 ft 13 kts 269°
2026-05-03 22:40 26.07490 -80.15349 10 ft 13 kts 270°
2026-05-03 22:40 26.07490 -80.15448 11 ft 13 kts 270°
2026-05-03 22:40 26.07491 -80.15545 12 ft 12 kts 270°
2026-05-03 22:41 26.07492 -80.15639 13 ft 12 kts 270°
2026-05-03 22:41 26.07492 -80.15730 13 ft 12 kts 270°
2026-05-03 22:41 26.07493 -80.15820 14 ft 11 kts 271°
2026-05-03 22:41 26.07494 -80.15895 15 ft 8 kts 270°
2026-05-03 22:42 26.07494 -80.15950 16 ft 6 kts 270°
2026-05-03 22:42 26.07495 -80.15988 17 ft 5 kts 270°
2026-05-03 22:42 26.07495 -80.16014 18 ft 0 kts 270°
2026-05-03 22:47 26.07495 -80.16020 18 ft 1 kts 270°
2026-05-03 22:47 26.07495 -80.16024 18 ft 0 kts 270°
2026-05-03 22:51 26.07495 -80.16036 18 ft 6 kts 271°
2026-05-03 22:51 26.07495 -80.16080 19 ft 6 kts 270°
2026-05-03 22:51 26.07495 -80.16124 19 ft 6 kts 270°
2026-05-03 22:52 26.07495 -80.16167 19 ft 6 kts 270°
2026-05-03 22:52 26.07496 -80.16207 18 ft 0 kts 270°
2026-05-03 22:57 26.07496 -80.16224 18 ft 6 kts 270°
2026-05-03 22:57 26.07496 -80.16275 18 ft 6 kts 269°
2026-05-03 22:58 26.07496 -80.16278 18 ft 0 kts 269°
2026-05-03 23:00 26.07496 -80.16279 18 ft 1 kts 269°
2026-05-03 23:00 26.07495 -80.16317 14 ft 6 kts 270°
2026-05-03 23:00 26.07495 -80.16332 17 ft 0 kts 270°
2026-05-03 23:01 26.07495 -80.16345 17 ft 6 kts 270°
2026-05-03 23:01 26.07496 -80.16384 17 ft 0 kts 270°
2026-05-03 23:05 26.07496 -80.16403 17 ft 6 kts 270°
2026-05-03 23:05 26.07496 -80.16423 17 ft 0 kts 271°
2026-05-03 23:06 26.07497 -80.16450 18 ft 4 kts 271°
2026-05-03 23:06 26.07497 -80.16462 18 ft 0 kts 271°
2026-05-03 23:11 26.07497 -80.16480 18 ft 6 kts 271°
2026-05-03 23:11 26.07498 -80.16528 18 ft 6 kts 271°
2026-05-03 23:11 26.07498 -80.16575 17 ft 5 kts 270°
2026-05-03 23:11 26.07498 -80.16580 17 ft 0 kts 271°
2026-05-03 23:13 26.07498 -80.16586 17 ft 3 kts 271°
2026-05-03 23:13 26.07511 -80.16629 18 ft 7 kts 307°
2026-05-03 23:13 26.07519 -80.16636 17 ft 0 kts 332°
2026-05-03 23:35 26.07546 -80.16642 16 ft 10 kts 353°
2026-05-03 23:35 26.07593 -80.16643 15 ft 0 kts
2026-05-03 23:37 26.07594 -80.16643 15 ft 0 kts
2026-05-03 23:37 26.07662 -80.16638 14 ft 17 kts 17°
2026-05-03 23:38 26.07695 -80.16533 16 ft 0 kts 90°
2026-05-03 23:38 26.07695 -80.16532 16 ft 2 kts 90°
2026-05-03 23:38 26.07694 -80.16181 18 ft 90 kts 90°
2026-05-03 23:38 26.07692 -80.15180 18 ft 165 kts 90°
2026-05-03 23:39 26.07660 -80.13833 774 ft 168 kts 90°
2026-05-03 23:39 26.07655 -80.12518 1557 ft 177 kts 89°
2026-05-03 23:39 26.07676 -80.11085 1951 ft 196 kts 89°
2026-05-03 23:39 26.08166 -80.08928 2107 ft 236 kts 58°
2026-05-03 23:40 26.08854 -80.07945 2357 ft 243 kts 45°
2026-05-03 23:40 26.10123 -80.06649 2820 ft 250 kts 31°
2026-05-03 23:40 26.11720 -80.05941 3450 ft 247 kts 15°
2026-05-03 23:40 26.13364 -80.05329 3917 ft 249 kts 16°
2026-05-03 23:41 26.15029 -80.04803 3968 ft 248 kts
2026-05-03 23:41 26.16765 -80.05023 4004 ft 262 kts 342°
2026-05-03 23:41 26.18518 -80.05669 3975 ft 266 kts 338°
2026-05-03 23:41 26.20254 -80.06372 4005 ft 267 kts 338°
2026-05-03 23:42 26.21884 -80.07322 3993 ft 263 kts 316°
2026-05-03 23:42 26.22795 -80.08508 4010 ft 260 kts 298°
2026-05-03 23:42 26.23553 -80.10358 4011 ft 259 kts 290°
2026-05-03 23:42 26.24193 -80.12215 4036 ft 262 kts 290°
2026-05-03 23:43 26.24850 -80.14114 4629 ft 263 kts 290°
2026-05-03 23:43 26.25522 -80.16001 5564 ft 261 kts 293°
2026-05-03 23:43 26.26396 -80.17780 6452 ft 263 kts 299°
2026-05-03 23:43 26.27392 -80.19517 7187 ft 267 kts 300°
2026-05-03 23:44 26.28415 -80.21259 7928 ft 271 kts 300°
2026-05-03 23:44 26.29449 -80.23023 8707 ft 272 kts 300°
2026-05-03 23:44 26.30484 -80.24805 9503 ft 275 kts 299°
2026-05-03 23:44 26.31523 -80.26607 10214 ft 279 kts 299°
2026-05-03 23:45 26.32603 -80.28498 10469 ft 301 kts 299°
2026-05-03 23:45 26.33750 -80.30516 10640 ft 323 kts 299°
2026-05-03 23:45 26.34991 -80.32701 10867 ft 341 kts 299°
2026-05-03 23:45 26.36275 -80.34959 11364 ft 347 kts 299°
2026-05-03 23:46 26.37577 -80.37249 12018 ft 349 kts 299°
2026-05-03 23:46 26.38873 -80.39533 12664 ft 351 kts 299°
2026-05-03 23:46 26.40188 -80.41853 12961 ft 353 kts 299°
2026-05-03 23:46 26.41494 -80.44161 12996 ft 352 kts 298°
2026-05-03 23:47 26.42806 -80.46482 13005 ft 354 kts 298°
2026-05-03 23:47 26.44104 -80.48779 13009 ft 354 kts 298°
2026-05-03 23:47 26.45417 -80.51104 13007 ft 353 kts 298°
2026-05-03 23:47 26.46728 -80.53425 13005 ft 353 kts 298°
2026-05-03 23:48 26.48280 -80.55564 13001 ft 360 kts 315°
2026-05-03 23:48 26.50395 -80.57096 12999 ft 368 kts 333°
2026-05-03 23:48 26.52842 -80.57997 13012 ft 372 kts 339°
2026-05-03 23:48 26.55339 -80.58776 13012 ft 372 kts 340°
2026-05-03 23:49 26.57838 -80.59530 13002 ft 373 kts 340°
2026-05-03 23:49 26.60342 -80.60289 13007 ft 373 kts 340°
2026-05-03 23:49 26.62850 -80.61060 13009 ft 373 kts 339°
2026-05-03 23:49 26.65319 -80.61831 13021 ft 372 kts 339°
2026-05-03 23:50 26.67771 -80.62601 13810 ft 364 kts 339°
2026-05-03 23:50 26.70197 -80.63369 14479 ft 362 kts 338°
2026-05-03 23:50 26.72624 -80.64142 15038 ft 367 kts 338°
2026-05-03 23:50 26.75126 -80.64946 15229 ft 381 kts 338°
2026-05-03 23:51 26.77702 -80.65771 15568 ft 389 kts 338°
2026-05-03 23:51 26.80316 -80.66603 16113 ft 391 kts 338°
2026-05-03 23:51 26.82940 -80.67436 16658 ft 393 kts 338°
2026-05-03 23:51 26.85585 -80.68279 17141 ft 396 kts 338°
2026-05-03 23:52 26.88252 -80.69130 17617 ft 399 kts 337°
2026-05-03 23:52 26.90932 -80.69986 18077 ft 403 kts 337°
2026-05-03 23:52 26.93618 -80.70902 18503 ft 404 kts 335°
2026-05-03 23:52 26.96291 -80.71907 18902 ft 406 kts 334°
2026-05-03 23:53 26.98967 -80.72945 19305 ft 408 kts 333°
2026-05-03 23:53 27.01660 -80.73991 19707 ft 411 kts 333°
2026-05-03 23:53 27.04370 -80.75037 20106 ft 413 kts 333°
2026-05-03 23:53 27.07096 -80.76080 20502 ft 416 kts 333°
2026-05-03 23:54 27.09841 -80.77125 20886 ft 418 kts 333°
2026-05-03 23:54 27.12612 -80.78176 21252 ft 421 kts 333°
2026-05-03 23:54 27.15391 -80.79230 21619 ft 423 kts 333°
2026-05-03 23:54 27.18192 -80.80291 22003 ft 425 kts 333°
2026-05-03 23:55 27.20997 -80.81354 22376 ft 427 kts 333°
2026-05-03 23:55 27.23821 -80.82426 22727 ft 429 kts 333°
2026-05-03 23:55 27.26661 -80.83505 23070 ft 432 kts 333°
2026-05-03 23:55 27.29509 -80.84588 23404 ft 434 kts 333°
2026-05-03 23:56 27.32380 -80.85680 23714 ft 436 kts 333°
2026-05-03 23:56 27.35241 -80.86813 23998 ft 436 kts 332°
2026-05-03 23:56 27.38095 -80.87985 24291 ft 437 kts 331°
2026-05-03 23:56 27.40951 -80.89174 24573 ft 439 kts 331°
2026-05-03 23:57 27.43787 -80.90357 24858 ft 440 kts 331°
2026-05-03 23:57 27.46570 -80.91515 25129 ft 442 kts 331°
2026-05-03 23:57 27.49468 -80.92717 25411 ft 444 kts 331°
2026-05-03 23:57 27.52377 -80.93921 25700 ft 446 kts 331°
2026-05-03 23:58 27.55291 -80.95124 25999 ft 447 kts 331°
2026-05-03 23:58 27.58219 -80.96334 26280 ft 449 kts 331°
2026-05-03 23:58 27.61165 -80.97550 26560 ft 451 kts 331°
2026-05-03 23:58 27.64121 -80.98772 26829 ft 453 kts 331°
2026-05-03 23:59 27.67084 -80.99997 27102 ft 455 kts 331°
2026-05-03 23:59 27.70061 -81.01229 27371 ft 456 kts 331°
2026-05-03 23:59 27.73049 -81.02466 27649 ft 458 kts 331°
2026-05-03 23:59 27.76041 -81.03705 27997 ft 458 kts 331°
2026-05-04 00:00 27.79017 -81.04937 28417 ft 456 kts 331°
2026-05-04 00:00 27.81930 -81.06143 28870 ft 454 kts 330°
2026-05-04 00:00 27.84896 -81.07372 29324 ft 452 kts 330°
2026-05-04 00:00 27.87841 -81.08595 29758 ft 451 kts 330°
2026-05-04 00:01 27.90178 -81.09567 30053 ft 451 kts 330°
2026-05-04 00:01 27.93137 -81.10800 30055 ft 452 kts 330°
2026-05-04 00:01 27.99017 -81.13247 30063 ft 448 kts 330°
2026-05-04 00:02 28.04871 -81.15676 30084 ft 448 kts 331°
2026-05-04 00:02 28.10810 -81.17854 30090 ft 449 kts 333°
2026-05-04 00:03 28.16783 -81.19941 30095 ft 449 kts 333°
2026-05-04 00:03 28.22731 -81.22058 30098 ft 448 kts 333°
2026-05-04 00:04 28.28672 -81.24203 30093 ft 448 kts 333°
2026-05-04 00:04 28.34575 -81.26342 30088 ft 448 kts 333°
2026-05-04 00:05 28.40531 -81.28501 30090 ft 449 kts 333°
2026-05-04 00:05 28.46493 -81.30664 30081 ft 449 kts 333°
2026-05-04 00:06 28.52456 -81.32824 30095 ft 451 kts 334°
2026-05-04 00:06 28.55542 -81.33646 30088 ft 462 kts 343°
2026-05-04 00:06 28.58768 -81.33969 30111 ft 468 kts 347°
2026-05-04 00:07 28.65302 -81.34311 30102 ft 470 kts 348°
2026-05-04 00:07 28.71793 -81.34655 30100 ft 470 kts 348°
2026-05-04 00:08 28.78324 -81.35066 30098 ft 470 kts 348°
2026-05-04 00:08 28.84818 -81.35492 30083 ft 459 kts 347°
2026-05-04 00:09 28.91159 -81.35912 30095 ft 455 kts 347°
2026-05-04 00:09 28.97505 -81.36337 29576 ft 458 kts 347°
2026-05-04 00:10 29.00663 -81.36545 29051 ft 453 kts 347°
2026-05-04 00:10 29.03761 -81.36752 28535 ft 447 kts 347°
2026-05-04 00:10 29.06860 -81.36963 27979 ft 443 kts 347°
2026-05-04 00:10 29.09927 -81.37175 27447 ft 439 kts 348°
2026-05-04 00:11 29.12970 -81.37386 26895 ft 436 kts 348°
2026-05-04 00:11 29.15982 -81.37595 26370 ft 432 kts 348°
2026-05-04 00:11 29.18982 -81.37803 25841 ft 429 kts 348°
2026-05-04 00:11 29.21951 -81.38009 25319 ft 427 kts 348°
2026-05-04 00:12 29.24911 -81.38214 24784 ft 425 kts 348°
2026-05-04 00:12 29.27859 -81.38418 24247 ft 423 kts 348°
2026-05-04 00:12 29.30793 -81.38617 23697 ft 422 kts 348°
2026-05-04 00:12 29.33725 -81.38813 23091 ft 420 kts 349°
2026-05-04 00:13 29.36635 -81.39007 22539 ft 417 kts 349°
2026-05-04 00:13 29.39521 -81.39199 22003 ft 414 kts 349°
2026-05-04 00:13 29.42385 -81.39392 21482 ft 411 kts 349°
2026-05-04 00:13 29.45227 -81.39584 20971 ft 408 kts 349°
2026-05-04 00:14 29.48015 -81.39772 20475 ft 405 kts 349°
2026-05-04 00:14 29.50818 -81.39961 19978 ft 402 kts 349°
2026-05-04 00:14 29.53570 -81.40284 19473 ft 392 kts 339°
2026-05-04 00:14 29.56074 -81.41328 18996 ft 376 kts 325°
2026-05-04 00:15 29.58225 -81.42953 18456 ft 365 kts 311°
2026-05-04 00:15 29.60006 -81.44992 17908 ft 358 kts 307°
2026-05-04 00:15 29.61718 -81.47055 17389 ft 355 kts 307°
2026-05-04 00:15 29.63421 -81.49097 16896 ft 352 kts 307°
2026-05-04 00:16 29.65120 -81.51107 16421 ft 349 kts 308°
2026-05-04 00:16 29.66812 -81.53095 15959 ft 346 kts 308°
2026-05-04 00:16 29.68491 -81.55061 15495 ft 343 kts 308°
2026-05-04 00:16 29.70168 -81.57001 15040 ft 340 kts 309°
2026-05-04 00:17 29.71838 -81.58924 14580 ft 338 kts 309°
2026-05-04 00:17 29.73491 -81.60830 14130 ft 336 kts 309°
2026-05-04 00:17 29.75143 -81.62710 13625 ft 332 kts 313°
2026-05-04 00:17 29.77072 -81.64159 13117 ft 331 kts 328°
2026-05-04 00:18 29.79221 -81.65044 12783 ft 327 kts 342°
2026-05-04 00:18 29.81479 -81.65353 12473 ft 329 kts 350°
2026-05-04 00:18 29.83788 -81.65534 12146 ft 334 kts 351°
2026-05-04 00:18 29.86119 -81.65710 11808 ft 335 kts 351°
2026-05-04 00:19 29.88428 -81.65898 11477 ft 331 kts 351°
2026-05-04 00:19 29.90709 -81.66096 11139 ft 323 kts 351°
2026-05-04 00:19 29.92911 -81.66291 10824 ft 311 kts 351°
2026-05-04 00:19 29.94610 -81.66504 10566 ft 300 kts 343°
2026-05-04 00:20 29.96539 -81.67241 10285 ft 285 kts 335°
2026-05-04 00:20 29.98318 -81.68053 10168 ft 273 kts 335°
2026-05-04 00:20 30.00074 -81.68871 9822 ft 276 kts 335°
2026-05-04 00:20 30.01861 -81.69702 9458 ft 276 kts 335°
2026-05-04 00:21 30.03617 -81.70512 9168 ft 270 kts 336°
2026-05-04 00:21 30.05352 -81.71307 8900 ft 267 kts 336°
2026-05-04 00:21 30.07079 -81.72096 8635 ft 266 kts 336°
2026-05-04 00:21 30.08793 -81.72876 8375 ft 265 kts 336°
2026-05-04 00:22 30.10507 -81.73655 8109 ft 264 kts 336°
2026-05-04 00:22 30.12213 -81.74429 7853 ft 263 kts 337°
2026-05-04 00:22 30.13914 -81.75201 7594 ft 262 kts 337°
2026-05-04 00:22 30.15609 -81.75970 7337 ft 261 kts 337°
2026-05-04 00:23 30.17299 -81.76736 7079 ft 261 kts 337°
2026-05-04 00:23 30.18989 -81.77503 6824 ft 260 kts 337°
2026-05-04 00:23 30.20668 -81.78264 6575 ft 259 kts 338°
2026-05-04 00:23 30.22344 -81.79024 6304 ft 258 kts 338°
2026-05-04 00:24 30.23962 -81.79758 6038 ft 257 kts 338°
2026-05-04 00:24 30.25628 -81.80514 5771 ft 256 kts 338°
2026-05-04 00:24 30.26726 -81.81013 5603 ft 255 kts 338°
2026-05-04 00:24 30.28379 -81.81763 5341 ft 254 kts 338°
2026-05-04 00:25 30.30552 -81.82750 5019 ft 252 kts 337°
2026-05-04 00:25 30.32180 -81.83490 4737 ft 251 kts 337°
2026-05-04 00:25 30.33275 -81.83989 4560 ft 250 kts 338°
2026-05-04 00:25 30.34891 -81.84724 4313 ft 248 kts 338°
2026-05-04 00:26 30.36477 -81.85446 4076 ft 248 kts 338°
2026-05-04 00:26 30.38075 -81.86173 3830 ft 246 kts 339°
2026-05-04 00:26 30.39661 -81.86895 3586 ft 245 kts 339°
2026-05-04 00:26 30.41242 -81.87615 3347 ft 243 kts 339°
2026-05-04 00:27 30.42872 -81.88004 3070 ft 239 kts 10°
2026-05-04 00:27 30.44286 -81.87218 2843 ft 219 kts 52°
2026-05-04 00:27 30.44892 -81.85740 2721 ft 193 kts 74°
2026-05-04 00:27 30.45294 -81.84313 2509 ft 179 kts 73°
2026-05-04 00:28 30.45680 -81.83000 2338 ft 166 kts 73°
2026-05-04 00:28 30.46054 -81.81746 2170 ft 164 kts 73°
2026-05-04 00:28 30.46435 -81.80480 2088 ft 167 kts 73°
2026-05-04 00:28 30.46822 -81.79185 2049 ft 169 kts 73°
2026-05-04 00:29 30.47204 -81.77925 2008 ft 164 kts 72°
2026-05-04 00:29 30.47598 -81.76623 1428 ft 182 kts 73°
2026-05-04 00:29 30.48018 -81.75263 1048 ft 176 kts 72°
2026-05-04 00:29 30.48382 -81.74155 780 ft 168 kts 69°
2026-05-04 00:30 30.48742 -81.72945 551 ft 150 kts 73°
2026-05-04 00:30 30.49042 -81.71868 395 ft 136 kts 71°
2026-05-04 00:30 30.49376 -81.70846 195 ft 134 kts 73°
2026-05-04 00:30 30.49684 -81.69816 110 ft 136 kts 72°
2026-05-04 00:31 30.49980 -81.68830 37 ft 117 kts 72°
2026-05-04 00:31 30.50204 -81.68102 38 ft 76 kts 70°
2026-05-04 00:31 30.50351 -81.67621 34 ft 58 kts 70°
2026-05-04 00:31 30.50459 -81.67276 28 ft 28 kts 70°
2026-05-04 00:32 30.50453 -81.67133 32 ft 16 kts 157°
2026-05-04 00:32 30.50350 -81.67131 32 ft 15 kts 206°
2026-05-04 00:32 30.50294 -81.67227 30 ft 14 kts 248°
2026-05-04 00:32 30.50263 -81.67335 30 ft 14 kts 250°
2026-05-04 00:33 30.50230 -81.67436 31 ft 13 kts 249°
2026-05-04 00:33 30.50169 -81.67629 30 ft 12 kts 250°
2026-05-04 00:33 30.50142 -81.67723 32 ft 12 kts 252°
2026-05-04 00:34 30.50115 -81.67814 36 ft 12 kts 251°
2026-05-04 00:34 30.50089 -81.67903 37 ft 11 kts 251°
2026-05-04 00:34 30.50043 -81.67970 35 ft 11 kts 194°
2026-05-04 00:34 30.49968 -81.67948 35 ft 11 kts 159°
2026-05-04 00:35 30.49900 -81.67928 35 ft 8 kts 174°
2026-05-04 00:35 30.49849 -81.67936 35 ft 8 kts 226°
2026-05-04 00:35 30.49838 -81.67993 34 ft 11 kts 255°
2026-05-04 00:35 30.49790 -81.68143 34 ft 24 kts 248°
2026-05-04 00:36 30.49712 -81.68291 35 ft 20 kts 241°
2026-05-04 00:36 30.49633 -81.68416 32 ft 20 kts 195°
2026-05-04 00:36 30.49496 -81.68435 35 ft 19 kts 182°
2026-05-04 00:36 30.49382 -81.68433 39 ft 12 kts 199°
2026-05-04 00:37 30.49346 -81.68481 40 ft 6 kts 249°
2026-05-04 00:37 30.49343 -81.68512 39 ft 0 kts 266°